Location: Plainartige
(45.6866°N, 1.7993°E)
Time: 05:34:23
(UTC+00:00)

Envisat - Visible Passes

Search period start: 18 January 2022 00:00
Search period end: 28 January 2022 00:00
Orbit: 764 x 766 km, 98.2° (Epoch: 17 January)

Date Brightness Start Highest point End Pass type
(mag) Time Alt. Az. Time Alt. Az. Time Alt. Az.
18 Jan 4.1 04:18:58 10° NNE 04:23:47 41° E 04:28:34 10° SSE visible
18 Jan 3.8 05:58:21 10° N 06:02:37 28° WNW 06:06:52 10° WSW visible
18 Jan 5.9 17:16:59 10° SW 17:20:06 16° W 17:23:13 10° NW visible
19 Jan 5.3 03:42:55 10° NE 03:46:37 20° E 03:50:17 10° SE visible
19 Jan 3.0 05:21:00 10° N 05:25:59 56° WNW 05:30:56 10° SSW visible
20 Jan 3.2 04:44:03 10° NNE 04:49:09 71° ESE 04:54:13 10° S visible
20 Jan 4.3 06:24:18 10° NNW 06:27:37 18° WNW 06:30:55 10° W visible
21 Jan 4.5 04:07:32 10° NNE 04:12:07 33° E 04:16:40 10° SSE visible
21 Jan 3.6 05:46:34 10° N 05:51:07 34° WNW 05:55:39 10° SW visible
22 Jan 5.6 03:31:50 10° NE 03:34:54 16° E 03:37:55 10° SE visible
22 Jan 2.8 05:09:21 10° N 05:14:25 70° WNW 05:19:28 10° SSW visible
22 Jan 4.8 06:51:11 10° NW 06:52:30 11° NW 06:53:50 10° WNW visible
23 Jan 3.6 04:32:31 10° NNE 04:37:32 56° E 04:42:30 10° S visible
23 Jan 4.1 06:12:22 10° NNW 06:16:09 22° WNW 06:19:56 10° WSW visible
23 Jan 6.2 17:32:12 10° WSW 17:33:59 12° W 17:35:47 10° WNW visible
24 Jan 4.9 03:56:11 10° NE 04:00:27 26° E 04:04:41 10° SSE visible
24 Jan 3.3 05:34:49 10° N 05:39:36 42° WNW 05:44:21 10° SW visible
25 Jan 5.9 03:21:05 10° ENE 03:23:09 12° E 03:25:12 10° ESE visible
25 Jan 2.9 04:57:44 10° NNE 05:02:51 87° WNW 05:07:56 10° SSW visible
25 Jan 4.6 06:38:39 10° NNW 06:41:06 14° WNW 06:43:33 10° W visible
26 Jan 4.0 04:21:02 10° NNE 04:25:54 44° E 04:30:44 10° S visible
26 Jan 3.9 06:00:30 10° N 06:04:41 26° WNW 06:08:51 10° WSW visible
26 Jan 6.0 17:19:21 10° WSW 17:22:14 15° W 17:25:08 10° NW visible
27 Jan 5.3 03:44:54 10° NE 03:48:45 21° E 03:52:34 10° SE visible
27 Jan 3.1 05:23:07 10° N 05:28:04 52° WNW 05:32:59 10° SW visible
